Location: Robert Ferguson Observatory
(38.4385°N, 122.5078°W)
Time: 03:40:18
(UTC-07:00)

Daily predictions for brighter satellites

Satellite Brightness Start Highest point End
(mag) Time Altitude Azimuth Time Altitude Azimuth Time Altitude Azimuth
Timation 2 Rocket 4.4 00:08:45 52° ESE 00:08:45 52° ESE 00:15:11 10° NE
Cosmos 2278 4.4 00:04:21 10° N 00:09:42 41° ENE 00:10:07 41° ENE
CZ-4C R/B 2.1 00:15:42 81° N 00:15:42 81° N 00:21:22 10° NNE
Atlas Centaur 2 4.0 00:10:01 10° W 00:14:28 29° SW 00:14:28 29° SW
Cosmos 468 Rocket 4.3 00:12:43 10° NNW 00:17:29 59° NE 00:17:29 59° NE
Cosmos 2228 Rocket 4.5 00:17:39 10° N 00:20:33 32° NE 00:20:33 32° NE
Cosmos 2026 Rocket 3.8 00:21:32 75° WSW 00:21:51 78° W 00:27:56 10° N
Cosmos 1707 4.5 00:23:24 31° NNW 00:23:24 31° NNW 00:25:50 10° N
Cosmos 2082 Rocket 3.3 00:27:28 32° ENE 00:27:28 32° ENE 00:31:14 10° NE
Cosmos 1814 Rocket 4.3 00:21:27 10° NNW 00:26:14 62° NE 00:26:14 62° NE
Terra 4.0 00:28:07 15° W 00:28:07 15° W 00:30:47 10° NW
Cosmos 1833 Rocket 4.1 00:32:16 27° ENE 00:32:16 27° ENE 00:35:41 10° NE
Cosmos 1943 Rocket 4.1 00:28:46 10° WNW 00:32:06 17° W 00:32:06 17° W
ALOS 2 3.6 00:42:41 44° N 00:42:41 44° N 00:45:43 10° N
NOSS 3-2 (A) 4.0 00:40:00 42° W 00:41:43 55° NW 00:48:13 10° NNE
Cosmos 1486 Rocket 4.3 00:43:18 64° N 00:43:18 64° N 00:47:43 10° NNE
Lacrosse 5 3.9 00:40:49 10° NNW 00:44:56 24° NNE 00:47:25 17° ENE
CZ-4B R/B 3.9 00:51:57 24° NNW 00:51:57 24° NNW 00:53:34 10° NNW
Meteor 1-24 Rocket 4.3 00:54:05 50° W 00:54:24 50° WNW 01:00:09 10° N
Cosmos 1763 Rocket 3.9 00:50:23 10° NNW 00:55:04 58° NE 00:55:04 58° NE
Cosmos 1818 3.9 00:53:53 10° NNW 00:58:21 59° NW 00:58:21 59° NW
CZ-2C R/B 3.4 00:57:22 10° NNE 01:01:52 44° ENE 01:01:52 44° ENE
Cosmos 1553 Rocket 4.3 01:05:27 10° NNW 01:11:37 54° W 01:11:41 54° W
H-2A R/B 4.4 01:10:09 10° N 01:12:08 23° NW 01:12:08 23° NW
In-Cosmos 22 4.3 01:14:15 71° NNW 01:14:15 71° NNW 01:19:26 10° N
ISS 0.3 01:27:07 10° N 01:27:47 10° NNE 01:28:26 10° NNE
Cosmos 1354 Rocket 4.5 01:31:27 55° NW 01:31:27 55° NW 01:36:13 10° N
Aureole 1 Rocket 4.1 01:28:35 10° N 01:33:26 56° ENE 01:33:37 56° ENE
Cosmos 2266 Rocket 4.2 01:35:00 58° W 01:35:18 58° W 01:41:39 10° N
Cosmos 2315 Rocket 3.9 01:29:58 10° N 01:36:20 85° E 01:36:30 84° SE
Cosmos 841 Rocket 4.2 01:31:48 10° NNW 01:35:47 47° NW 01:35:47 47° NW
CENTAUR R/B 2.4 01:38:01 78° ESE 01:38:01 78° ESE 01:44:41 10° NE
USA 32 4.3 01:38:21 10° N 01:43:07 63° NE 01:43:07 63° NE
Cosmos 1980 Rocket 2.5 01:44:24 10° NNW 01:49:58 57° ENE 01:50:30 55° E
ASTEX 1 3.9 01:45:14 10° NNE 01:49:28 54° ENE 01:49:28 54° ENE
Lacrosse 5 rocket 3.6 01:53:49 10° NNW 01:57:25 25° NE 02:01:02 10° E
Meteor 2-11 Rocket 4.3 01:52:26 10° N 01:58:37 81° E 01:59:02 76° SE
CZ-2C R/B 3.2 02:02:14 79° WNW 02:02:14 79° WNW 02:07:44 10° NNW
Cosmos 2058 4.0 02:10:45 43° N 02:10:45 43° N 02:13:37 10° N
Cosmos 1697 Rocket 3.0 02:03:54 10° NNW 02:08:38 53° WNW 02:08:38 53° WNW
Cosmos 2082 Rocket 3.5 02:09:17 28° WNW 02:10:11 30° WNW 02:15:07 10° N
Cosmos 1726 3.9 02:06:51 10° N 02:09:02 30° NNE 02:09:02 30° NNE
H-2A R/B 3.6 02:13:41 30° ESE 02:13:41 30° ESE 02:21:04 10° E
Cosmos 1833 Rocket 3.7 02:13:57 34° WNW 02:14:36 35° WNW 02:19:45 10° N
Cosmos 1805 Rocket 4.3 02:16:35 48° NNW 02:16:35 48° NNW 02:19:59 10° N
ATLAS 5 CENTAUR R/B 3.5 02:18:52 23° ESE 02:18:52 23° ESE 02:22:21 10° ENE
Cosmos 1455 4.5 02:16:35 10° NNE 02:19:15 18° ENE 02:19:26 18° ENE
BREEZE-M TANK 3.5 02:10:10 10° WSW 02:20:42 60° NNW 02:23:53 10° ENE
Cosmos 1633 Rocket 3.5 02:23:06 59° NNE 02:23:06 59° NNE 02:26:44 10° N
SL-08 R/B 4.3 02:25:14 71° SW 02:25:48 77° W 02:31:56 10° N
Lacrosse 5 2.7 02:23:15 10° NW 02:26:32 40° WNW 02:26:32 40° WNW
Cosmos 2242 Rocket 4.0 02:24:05 10° N 02:27:50 61° NNE 02:27:50 61° NNE
Cosmos 1626 4.0 02:31:16 25° ENE 02:31:16 25° ENE 02:33:55 10° NNE
Cosmos 371 Rocket 3.4 02:26:17 10° NNW 02:31:06 73° ENE 02:31:06 73° ENE
Cosmos 1666 Rocket 4.3 02:33:53 46° NW 02:33:53 46° NW 02:37:14 10° N
IRS-P3 4.4 02:27:57 10° NNE 02:33:12 56° E 02:33:45 53° SE
Cosmos 540 Rocket 4.2 02:30:12 10° NNW 02:34:08 41° WNW 02:34:08 41° WNW
Cosmos 2360 4.0 02:36:30 10° NNW 02:42:13 76° WSW 02:42:38 72° SSW
CZ-2C R/B 4.3 02:38:27 10° NNW 02:42:33 22° WNW 02:43:24 21° WNW
Cosmos 1470 Rocket 3.7 02:43:58 69° ENE 02:43:58 69° ENE 02:48:09 10° NNE
Cosmos 1933 Rocket 3.6 02:48:19 74° ENE 02:48:19 74° ENE 02:52:31 10° N
SL-16 R/B 2.3 02:49:01 10° NNW 02:54:43 73° ENE 02:57:05 36° SE
USA 215 3.2 02:50:16 10° NE 02:56:50 77° SE 02:58:45 49° SSW
Sich 1 4.2 03:00:24 32° WNW 03:00:24 32° WNW 03:03:54 10° NNW
ADEOS 4.2 02:56:18 10° NNE 03:01:22 49° E 03:02:51 38° SE
AQUA 3.8 02:58:06 10° NNE 03:02:53 73° ESE 03:03:30 63° SSE
Cosmos 1869 3.8 02:59:04 10° N 03:02:59 54° E 03:03:15 53° E
Cosmos 1703 4.1 03:05:32 41° NW 03:05:32 41° NW 03:08:40 10° N
ISS -1.6 03:01:59 10° NW 03:05:00 34° NNE 03:08:01 10° E
USA 161 4.3 03:05:59 15° NE 03:05:59 15° NE 03:06:51 10° NNE
Cosmos 2322 Rocket 2.0 02:59:49 10° NNW 03:05:28 85° WSW 03:07:11 47° SSE
BREEZE-M DEB (TANK) 4.0 03:04:20 52° SSW 03:05:42 73° SE 03:21:10 10° NE
Cosmos 1271 Rocket 3.1 03:05:29 10° NNW 03:08:34 56° NNW 03:08:34 56° NNW
BREEZE-M DEB (TANK) 2.5 03:13:15 57° NW 03:13:26 58° NNW 03:19:41 10° NE
SEDSat Delta rocket 4.3 03:15:14 44° SSW 03:15:32 44° S 03:21:55 10° ESE
Meteor 1-4 Rocket 3.2 03:14:50 10° NNW 03:17:50 46° NW 03:17:50 46° NW
Cosmos 2112 Rocket 4.5 03:13:44 10° N 03:18:52 58° ENE 03:22:53 16° SE
ERS-2 3.0 03:15:25 10° N 03:18:31 40° NW 03:18:31 40° NW
CZ-2D R/B 3.6 03:17:16 10° NE 03:21:52 30° E 03:25:21 15° SSE
Cosmos 1862 Rocket 3.6 03:20:47 10° NNW 03:25:10 57° W 03:25:22 56° WSW
CENTAUR R/B 4.3 03:25:10 12° W 03:29:26 23° NW 03:34:49 10° NNE
Okean O Rocket 4.2 03:29:51 10° ENE 03:32:13 14° E 03:34:34 10° SE
SL-16 R/B 3.3 03:27:17 10° SE 03:33:18 51° ENE 03:39:20 10° N
Cosmos 1980 Rocket 3.9 03:29:45 10° WNW 03:32:13 17° W 03:32:13 17° W
NPP 4.1 03:29:18 10° N 03:34:28 47° WNW 03:36:03 36° WSW
Cosmos 2360 Rocket 2.7 03:29:10 10° NNW 03:34:44 60° ENE 03:40:18 10° SE
Cosmos 1709 Rocket 4.2 03:34:36 37° SW 03:36:53 55° W 03:43:01 10° N
Lacrosse 5 rocket 1.7 03:32:37 10° NW 03:36:34 49° WSW 03:36:34 49° WSW
SL-08 R/B 3.6 03:36:20 43° WSW 03:36:59 46° W 03:41:44 10° NNW
Cosmos 1933 3.3 03:36:10 10° N 03:40:12 78° E 03:41:39 38° SSE
ATLAS CENTAUR R/B 3.5 03:40:30 10° NNW 03:44:41 32° NE 03:48:35 10° ESE
GPS 2-05 Rocket1 3.2 03:48:18 45° SE 03:48:18 45° SE 03:51:02 10° ESE
Cosmos 1869 Rocket 3.5 03:47:37 38° S 03:49:18 90° E 03:53:45 10° N
Cosmos 2219 3.4 03:49:06 26° S 03:52:19 67° ESE 03:58:02 10° NNE
Cosmos 2221 Rocket 3.5 03:48:18 10° N 03:52:50 79° W 03:55:09 29° S
Cosmos 2298 Rocket 4.1 03:51:52 29° S 03:54:39 81° ESE 04:00:00 10° NNE
Cosmos 1455 3.6 03:51:52 10° NW 03:54:28 23° WNW 03:54:28 23° WNW
Cosmos 2322 3.7 03:49:28 10° NNW 03:55:15 87° ENE 04:00:58 10° SSE
USA 229 DEB 3.8 03:54:47 26° SSW 03:58:58 79° ESE 04:05:58 10° NE
USA 229 3.8 03:54:53 26° SSW 03:59:05 78° ESE 04:06:05 10° NE
Meteor 1-26 Rocket 4.3 03:53:44 10° N 03:59:17 74° E 04:04:47 10° SSE
Spot 4 Rocket 4.2 03:54:25 10° N 03:59:27 56° WNW 04:01:51 30° SW
Cosmos 1346 4.3 04:01:28 28° WNW 04:01:28 28° WNW 04:04:01 10° NNW
ATLAS 5 CENTAUR R/B 2.7 04:00:24 25° WSW 04:02:43 41° NW 04:07:40 10° NNE
Cosmos 1680 Rocket 3.9 04:00:45 10° NNW 04:05:38 42° WSW 04:08:08 25° SSW
Cosmos 1626 4.0 04:06:00 17° WNW 04:06:10 17° WNW 04:08:38 10° NNW
Resurs 1-4 Rocket 2.1 04:02:20 10° NNE 04:07:42 83° ESE 04:11:35 19° S
MOS 1-B 4.3 04:09:46 10° NNE 04:15:35 90° WNW 04:20:16 16° SSW
Cosmos 1892 3.9 04:12:52 10° SSE 04:16:31 40° E 04:20:10 10° NNE
Coronas F rocket 4.4 04:16:05 10° ESE 04:17:23 13° E 04:18:43 10° ENE
GENESIS II 4.5 04:14:17 10° NW 04:18:14 46° WSW 04:22:06 10° S
OE (NEXTSAT) 4.3 04:17:17 31° WSW 04:18:52 86° SSE 04:22:29 10° ENE
Cosmos 1733 Rocket 3.9 04:16:11 10° SSE 04:20:21 49° E 04:24:34 10° NNE
Cosmos 1703 Rocket 4.2 04:16:33 10° NNW 04:20:30 34° W 04:22:19 24° SW
ARIANE 5 R/B 2.9 04:18:08 10° N 04:23:01 48° WNW 04:26:10 21° SW
OAO 3 Rocket 3.5 04:23:52 19° WSW 04:26:48 41° SSW 04:31:13 10° SE
COSMOS 2428 2.8 04:22:02 10° NNW 04:27:44 80° ENE 04:33:24 10° SSE
IRS-1D 4.0 04:24:18 10° N 04:29:25 49° WNW 04:33:08 18° SW
Thor Agena Rocket 4.4 04:24:51 10° SSE 04:29:59 55° ENE 04:35:09 10° N
Cosmos 1898 Rocket 3.8 04:29:49 19° SW 04:33:21 53° WNW 04:38:27 10° N
Cosmos 389 Rocket 2.7 04:29:45 10° N 04:33:28 76° E 04:37:08 10° SSE
UNKNOWN OBJECT B 2.8 04:30:50 10° N 04:34:38 63° WNW 04:37:35 16° SSW
CZ-2C R/B 3.9 04:30:43 10° SSE 04:35:11 75° ENE 04:39:46 10° N
AVUM R/B 3.2 04:35:07 21° S 04:36:10 39° ESE 04:38:11 10° NE
Cosmos 1937 Rocket 3.6 04:33:46 16° SSW 04:38:02 69° WNW 04:43:20 10° NNE
SL-16 R/B 3.9 04:35:22 10° WNW 04:38:04 14° W 04:38:53 13° WSW
Cosmos 292 Rocket 3.8 04:34:14 10° NNW 04:39:04 90° ENE 04:43:50 10° SSE
Okean 1-7 3.7 04:35:20 10° NNW 04:39:19 35° W 04:42:31 14° SSW
USA 215 4.4 04:33:41 10° NNE 04:39:27 35° NNW 04:45:13 10° W
UNK 4.1 04:36:08 11° SSW 04:40:13 42° W 04:44:34 10° NNW
Cosmos 2341 Rocket 4.2 04:34:04 10° S 04:40:21 79° E 04:46:43 10° N
ISS -2.2 04:38:40 10° WNW 04:41:19 23° SW 04:43:57 10° S
Cosmos 2237 Rocket 4.1 04:36:52 10° N 04:42:01 34° ENE 04:47:10 10° SE
IRS-1C Rocket 4.1 04:37:00 10° NNE 04:42:19 85° WNW 04:47:35 10° SSW
Sich 1 Rocket 4.3 04:39:22 10° S 04:43:38 54° E 04:47:55 10° NNE
Cosmos 2237 4.2 04:44:24 10° NNW 04:50:05 65° WSW 04:55:44 10° S
Nadezhda 3 Rocket 3.9 04:44:37 10° N 04:50:47 76° W 04:56:54 10° S
SL-24 DEB 4.4 04:46:51 10° N 04:51:23 56° W 04:55:53 10° SSW
Cosmos 2154 Rocket 4.1 04:47:38 10° SSW 04:53:55 65° W 05:00:15 10° N
Cosmos 2219 Rocket 2.7 04:50:19 10° NNW 04:55:53 66° ENE 05:01:25 10° SSE
Cosmos 1908 Rocket 4.2 04:52:36 10° S 04:56:56 56° E 05:01:14 10° NNE
Meteor 2-3 Rocket 4.3 04:54:39 10° SSW 05:00:02 42° WNW 05:05:33 10° N
CZ-2D R/B 3.1 04:57:17 10° N 05:01:53 32° WNW 05:06:31 10° SW
Cosmos 1674 Rocket 3.5 05:00:25 10° N 05:04:44 75° W 05:09:03 10° S
H-2A ROCKET BODY 3.0 05:03:33 11° SW 05:04:46 12° SW 05:05:55 10° S
SME Rocket 4.0 04:58:29 10° S 05:05:04 48° WSW 05:09:36 10° NNW
SL-23 DEB 4.1 05:03:31 10° NW 05:06:55 76° NE 05:12:02 10° SE
H-2A R/B 4.0 04:54:36 10° W 05:07:04 24° SW 05:11:01 10° S
Meteor 2-6 Rocket 4.3 05:01:51 10° N 05:07:20 86° E 05:12:56 10° S
Meteor 1-27 Rocket 4.4 05:02:38 10° N 05:08:32 64° E 05:14:24 10° SSE
Okean O Rocket 2.0 05:04:35 10° N 05:08:51 47° WNW 05:13:02 10° SW
PSLV R/B 4.4 05:07:41 10° N 05:11:27 42° WNW 05:15:16 10° SW
SWAS 4.5 05:10:54 10° NNW 05:15:09 61° WSW 05:19:23 10° S
Meteor 2-10 Rocket 3.7 05:11:59 10° NNW 05:16:54 52° W 05:21:58 10° S
SL-16 R/B 3.6 05:12:15 10° SW 05:17:09 24° W 05:22:05 10° NW
Cosmos 2360 Rocket 3.6 05:14:40 10° WNW 05:18:09 17° W 05:21:40 10° SW
GP-B 3.1 05:15:01 10° N 05:19:27 74° W 05:23:52 10° S
Cosmos 2227 Rocket 2.3 05:15:33 10° SSW 05:21:12 87° WNW 05:26:53 10° NNE
NOSS 3-1 (C) 3.5 05:17:12 10° SW 05:23:02 80° WNW 05:29:31 10° NNE
